This is the latest recevied weather packets stored in our database for station/object K7SKM. If no packets are shown the sender has not sent any weather packets the latest 10 day(s).
| Time | Temp. | Humidity | Pressure | Rain* | Wind** | Luminosity | Snow |
|---|---|---|---|---|---|---|---|
| 1788020274 | 13.33° C | 90% | 1022.1 hPa | 0 mm | - | 25 W/m² | - |
| 1788019981 | 13.33° C | 90% | 1022.2 hPa | 0 mm | - | 22 W/m² | - |
| 1788019669 | 13.33° C | 90% | 1022.1 hPa | 0 mm | - | 28 W/m² | - |
| 1788019368 | 14.44° C | 93% | 1022.3 hPa | 0 mm | - | 69 W/m² | - |
| 1788019061 | 14.44° C | 94% | 1021.9 hPa | 0 mm | - | 181 W/m² | - |
| 1788018756 | 13.33° C | 92% | 1021.8 hPa | 0 mm | - | 117 W/m² | - |
| 1788018451 | 12.78° C | 92% | 1021.8 hPa | 0 mm | - | 87 W/m² | - |
| 1788018150 | 12.78° C | 92% | 1021.5 hPa | 0 mm | - | 82 W/m² | - |
| 1788017847 | 12.78° C | 92% | 1021.5 hPa | 0 mm | - | 72 W/m² | - |
| 1788017543 | 12.78° C | 92% | 1021.4 hPa | 0 mm | - | 50 W/m² | - |
| 1788017239 | 12.78° C | 92% | 1021.3 hPa | 0 mm | - | 34 W/m² | - |
| 1788016935 | 12.78° C | 91% | 1021.3 hPa | 0 mm | - | 34 W/m² | - |
| 1788016633 | 12.78° C | 91% | 1021.4 hPa | 1.78 mm | - | 28 W/m² | - |
| 1788016332 | 12.78° C | 90% | 1021.4 hPa | 1.78 mm | - | 23 W/m² | - |
| 1788016032 | 12.78° C | 90% | 1021.5 hPa | 0 mm | - | 20 W/m² | - |
| 1788015731 | 12.78° C | 89% | 1021.5 hPa | 1.78 mm | - | 12 W/m² | - |
| 1788015426 | 12.78° C | 88% | 1021.4 hPa | 3.56 mm | - | 6 W/m² | - |
| 1788015122 | 12.78° C | 88% | 1021.3 hPa | 7.11 mm | - | 7 W/m² | - |
| 1788014820 | 12.78° C | 87% | 1021.3 hPa | 8.89 mm | - | 4 W/m² | - |
| 1788014520 | 12.78° C | 86% | 1021.4 hPa | 8.89 mm | - | 0 W/m² | - |
| 1788014215 | 12.78° C | 85% | 1021.4 hPa | 21.59 mm | - | 0 W/m² | - |
| 1788013915 | 12.78° C | 84% | 1021.4 hPa | 16.26 mm | - | 0 W/m² | - |
| 1788013609 | 13.33° C | 85% | 1021 hPa | 0 mm | - | 0 W/m² | - |
| 1788013304 | 13.33° C | 84% | 1020.6 hPa | 0 mm | - | 0 W/m² | - |
| 1788013004 | 13.33° C | 84% | 1020.8 hPa | 0 mm | - | 0 W/m² | - |
* Rain latest hour (hover to see other rain measurements)
** Current wind speed in m/s (hover to see current wind gust speed)